Find Local Weather

World > North America > United States > Vermont

Lyndonville, Vermont Regional Weather

Lat: 44.53N, Lon: 72W
Wx Zone: VTZ007
Feedback
Expires:201810160000;;243394
ASUS41 KBTV 152310
RWRBTV
VERMONT REGIONAL WEATHER ROUNDUP
NATIONAL WEATHER SERVICE BURLINGTON VT
700 PM EDT MON OCT 15 2018

NOTE: "FAIR" INDICATES FEW OR NO CLOUDS BELOW 12,000 FEET WITH NO 
SIGNIFICANT WEATHER AND/OR OBSTRUCTIONS TO VISIBILITY.

* THESE REPORTS ARE NOT UNDER NWS QUALITY CONTROL AND/OR DO NOT
  REPORT WEATHER SUCH AS PRECIPITATION AND FOG.


VTZ001>019-160000-
_____VERMONT_____

  
CITY           SKY/WX    TMP DP  RH WIND       PRES   REMARKS
BURLINGTON     MOCLDY    58  54  86 S16G24    29.65F                  
MONTPELIER     CLOUDY    52  51  97 S15       29.71F                  
MORRISVILLE    CLOUDY    50  49  96 CALM      29.66F                  
ST. JOHNSBURY*   N/A     51  51 100 MISG      29.69F                  
LYNDONVILLE*   FOG       49  48  99 SE8       29.71F VSB 3/4          
MIDDLEBURY*    CLOUDY    56  54  94 S8        29.69F                  
RUTLAND*       LGT RAIN  59  56  89 S8        29.70F                  
SPRINGFIELD    CLOUDY    50  50 100 CALM      29.75F                  
HIGHGATE*      CLOUDY    56  54  90 S12G20    29.63R                  
NEWPORT*       CLOUDY    49  49  99 S7        29.65F                  
BENNINGTON     LGT RAIN  61  56  83 S9G20     29.73F                  
LAKE EDEN*       N/A     54 N/A N/A SW7         N/A                   

_____LAKE CHAMPLAIN_____

  
CITY           SKY/WX    TMP DP  RH WIND       PRES   REMARKS

$$


SKY/WX - Weather  TMP - Temperature  DP - Dew Point  RH - Relative Humidity
WIND - Wind Direction/Speed PRES - Barometric Pressure